TimeCST,TemperatureF,Dew PointF,Humidity,Sea Level PressureIn,VisibilityMPH,Wind Direction,Wind SpeedMPH,Gust SpeedMPH,PrecipitationIn,Events,Conditions,WindDirDegrees,DateUTC
12:52 AM,15.1,3.0,59,30.18,10.0,SSW,11.5,-,N/A,,Partly Cloudy,200,2013-01-25 06:52:00
1:52 AM,15.1,3.9,61,30.16,10.0,South,9.2,-,N/A,,Mostly Cloudy,190,2013-01-25 07:52:00
2:52 AM,14.0,3.9,64,30.12,10.0,SSW,10.4,-,N/A,,Partly Cloudy,210,2013-01-25 08:52:00
3:52 AM,12.9,3.9,67,30.11,10.0,SSW,9.2,-,N/A,,Clear,210,2013-01-25 09:52:00
4:52 AM,12.0,3.9,70,30.10,10.0,SW,11.5,-,N/A,,Clear,230,2013-01-25 10:52:00
5:52 AM,12.0,3.9,70,30.08,10.0,WSW,11.5,-,N/A,,Clear,250,2013-01-25 11:52:00
6:47 AM,12.2,5.0,73,29.99,10.0,WSW,10.4,-,N/A,,Mostly Cloudy,250,2013-01-25 12:47:00
6:52 AM,12.9,5.0,71,30.08,10.0,West,10.4,-,N/A,,Mostly Cloudy,260,2013-01-25 12:52:00
7:08 AM,12.2,6.8,79,30.00,10.0,WSW,8.1,-,N/A,,Overcast,250,2013-01-25 13:08:00
7:52 AM,16.0,9.0,74,30.08,10.0,West,9.2,-,N/A,,Overcast,270,2013-01-25 13:52:00
8:52 AM,19.0,12.0,74,30.10,10.0,WNW,12.7,-,N/A,,Overcast,300,2013-01-25 14:52:00
9:04 AM,19.4,12.2,74,30.02,10.0,WNW,12.7,-,N/A,,Overcast,300,2013-01-25 15:04:00
9:52 AM,24.1,16.0,71,30.10,10.0,NW,19.6,27.6,N/A,,Overcast,310,2013-01-25 15:52:00
10:52 AM,25.0,16.0,69,30.12,10.0,NW,19.6,-,N/A,,Overcast,310,2013-01-25 16:52:00
11:52 AM,26.1,18.0,71,30.13,5.0,NW,20.7,28.8,0.00,,Haze,320,2013-01-25 17:52:00
12:52 PM,25.0,17.1,72,30.14,4.0,NW,19.6,28.8,N/A,,Haze,320,2013-01-25 18:52:00
1:52 PM,25.0,12.9,60,30.15,10.0,NW,20.7,29.9,N/A,,Mostly Cloudy,320,2013-01-25 19:52:00
2:19 PM,23.0,10.4,59,30.09,10.0,NNW,19.6,26.5,N/A,,Partly Cloudy,330,2013-01-25 20:19:00
2:52 PM,21.0,6.1,53,30.18,10.0,NNW,19.6,26.5,N/A,,Clear,340,2013-01-25 20:52:00
3:52 PM,19.0,3.9,52,30.20,10.0,NNW,18.4,-,N/A,,Clear,340,2013-01-25 21:52:00
4:52 PM,15.1,1.0,54,30.22,10.0,NNW,19.6,-,N/A,,Clear,340,2013-01-25 22:52:00
5:52 PM,12.0,-0.0,59,30.25,10.0,NNW,16.1,-,N/A,,Clear,340,2013-01-25 23:52:00
6:52 PM,9.0,-2.0,61,30.28,10.0,NNW,16.1,-,N/A,,Clear,330,2013-01-26 00:52:00
7:52 PM,8.1,-2.0,64,30.30,10.0,NNW,13.8,-,N/A,,Clear,340,2013-01-26 01:52:00
8:52 PM,6.1,-2.0,69,30.31,10.0,NNW,11.5,-,N/A,,Clear,340,2013-01-26 02:52:00
9:52 PM,5.0,-2.0,73,30.34,10.0,NNW,9.2,-,N/A,,Clear,340,2013-01-26 03:52:00
10:52 PM,3.9,-2.9,73,30.34,10.0,North,6.9,-,N/A,,Clear,350,2013-01-26 04:52:00